This is the latest recevied weather packets stored in our database for station/object KC9DNQ-3. If no packets are shown the sender has not sent any weather packets the latest 1 day(s).
| Time | Temp. | Humidity | Pressure | Rain* | Wind** | Luminosity | Snow |
|---|---|---|---|---|---|---|---|
| 1778083510 | 13.89° C | 41% | 1013.5 hPa | 0 mm | - | 932 W/m² | - |
| 1778083209 | 13.33° C | 45% | 1013.5 hPa | 0 mm | - | 969 W/m² | - |
| 1778082909 | 12.78° C | 40% | 1013.5 hPa | 0 mm | - | 759 W/m² | - |
| 1778081409 | 12.78° C | 45% | 1013.5 hPa | 0 mm | - | 570 W/m² | - |
| 1778081109 | 12.78° C | 52% | 1013.4 hPa | 0 mm | - | 462 W/m² | - |
| 1778080509 | 12.22° C | 50% | 1013.5 hPa | 0 mm | - | 392 W/m² | - |
| 1778079609 | 11.67° C | 55% | 1013.6 hPa | 0 mm | - | 424 W/m² | - |
| 1778079010 | 11.11° C | 58% | 1013.7 hPa | 0 mm | - | 338 W/m² | - |
| 1778078410 | 11.11° C | 58% | 1013.5 hPa | 0 mm | - | 355 W/m² | - |
| 1778077510 | 11.11° C | 59% | 1013.5 hPa | 0 mm | - | 339 W/m² | - |
| 1778076609 | 10.56° C | 61% | 1013.5 hPa | 0 mm | - | 302 W/m² | - |
| 1778076309 | 10° C | 63% | 1013.5 hPa | 0 mm | - | 264 W/m² | - |
| 1778076009 | 10° C | 62% | 1013.5 hPa | 0 mm | - | 244 W/m² | - |
| 1778074509 | 8.89° C | 68% | 1013.2 hPa | 0 mm | - | 276 W/m² | - |
| 1778073909 | 8.89° C | 67% | 1012.9 hPa | 0 mm | - | 193 W/m² | - |
| 1778073309 | 8.33° C | 67% | 1012.9 hPa | 0 mm | - | 169 W/m² | - |
| 1778072410 | 7.78° C | 70% | 1012.8 hPa | 0 mm | - | 149 W/m² | - |
| 1778071809 | 7.78° C | 73% | 1012.7 hPa | 0 mm | - | 146 W/m² | - |
| 1778071209 | 7.22° C | 73% | 1012.7 hPa | 0 mm | - | 141 W/m² | - |
| 1778070910 | 7.22° C | 74% | 1012.5 hPa | 0 mm | - | 107 W/m² | - |
| 1778070609 | 6.67° C | 75% | 1012.5 hPa | 0 mm | - | 123 W/m² | - |
| 1778070309 | 6.67° C | 76% | 1012.5 hPa | 0 mm | - | 125 W/m² | - |
| 1778069109 | 5.56° C | 81% | 1012 hPa | 0 mm | - | 91 W/m² | - |
| 1778066409 | 4.44° C | 87% | 1011.5 hPa | 0 mm | - | 28 W/m² | - |
| 1778065808 | 4.44° C | 86% | 1011.3 hPa | 0 mm | - | 16 W/m² | - |
* Rain latest hour (hover to see other rain measurements)
** Current wind speed in m/s (hover to see current wind gust speed)